CW8374 Weather Reports


time (UTC)temp
F
wind
direction
speed
knots
gust
knots
rain 1hr
in
rain 24hr
in
rain mn
in
humidity
%
barometer
mb
20260508074403 50 331 0.0 0.0 0.00 0.00 0.00 3 1012.8
20260508073404 50 331 0.0 0.0 0.00 0.00 0.00 3 1012.8
20260508071404 50 331 0.0 0.0 0.00 0.00 0.00 3 1012.7
20260508070903 50 331 0.0 0.0 0.00 0.00 0.00 3 1012.7
20260508064903 48 331 0.0 0.0 0.00 0.00 0.00 3 1012.6
20260508064403 48 331 0.0 0.0 0.00 0.00 0.00 3 1012.4
20260508063904 48 331 0.0 0.0 0.00 0.00 0.00 3 1012.4
20260508061904 48 261 0.0 0.0 0.00 0.00 0.00 3 1012.2
20260508060404 48 260 0.0 0.0 0.00 0.00 0.00 3 1012.0
20260508053903 46 261 0.0 0.0 0.00 0.00 0.00 3 1011.8
20260508051405 46 261 0.0 0.0 0.00 0.00 0.00 3 1011.7
20260508044903 46 261 0.0 0.0 0.00 0.00 0.00 3 1011.5
20260508044405 46 261 0.0 0.0 0.00 0.00 0.00 3 1011.5
20260508043904 46 261 0.0 0.0 0.00 0.00 0.00 3 1011.5
20260508043403 46 261 0.0 0.0 0.00 0.00 0.00 3 1011.5
20260508041405 46 261 0.0 0.0 0.00 0.00 0.00 3 1011.6
20260508040904 46 261 0.0 0.0 0.00 0.00 0.00 3 1011.6
20260508040406 46 261 0.0 0.0 0.00 0.00 0.00 3 1011.6
20260508034905 46 261 0.0 0.0 0.00 0.00 0.00 3 1011.6
20260508034405 46 261 0.0 0.0 0.00 0.00 0.00 3 1011.6
20260508033404 46 261 0.0 0.0 0.00 0.00 0.00 3 1011.6
20260508031905 46 261 0.0 0.0 0.00 0.00 0.00 3 1011.6
20260508021904 46 261 0.0 0.0 0.00 0.00 0.00 3 1011.4
20260508021404 46 261 0.0 0.0 0.00 0.00 0.00 3 1011.5
20260508013905 48 261 0.0 0.0 0.00 0.00 0.00 3 1011.5
20260508013403 48 261 0.0 0.0 0.00 0.00 0.00 3 1011.5
20260508011404 48 261 0.0 0.0 0.00 0.00 0.00 3 1011.4
20260508010404 48 261 0.0 0.0 0.00 0.00 0.00 3 1011.4
20260508003903 48 261 0.0 0.0 0.00 0.00 0.00 3 1011.4
20260508003404 48 261 0.0 0.0 0.00 0.00 0.00 3 1011.4
20260508000904 48 261 0.0 0.0 0.00 0.00 0.00 3 1011.6
20260508000405 48 261 0.0 0.0 0.00 0.00 0.00 3 1011.6
20260507233403 48 261 0.0 0.0 0.00 0.00 0.00 3 1011.6
20260507231403 50 261 0.0 0.0 0.00 0.00 0.00 3 1011.6
20260507230904 50 261 0.0 0.0 0.00 0.00 0.00 3 1011.6
20260507224404 48 261 0.0 0.0 0.00 0.00 0.00 3 1011.5
20260507220904 48 261 0.0 0.0 0.00 0.00 0.00 3 1011.3
20260507214403 50 261 0.0 0.0 0.00 0.00 0.00 3 1011.3
20260507213905 50 261 0.0 0.0 0.00 0.00 0.00 3 1011.3
20260507204903 52 261 0.0 0.0 0.00 0.00 0.00 3 1011.2
20260507203904 52 261 0.0 0.0 0.00 0.00 0.00 3 1011.1
20260507194905 52 261 0.0 0.0 0.00 0.00 0.00 3 1010.5
20260507194404 52 261 0.0 0.0 0.00 0.00 0.00 3 1010.5
20260507193403 52 261 0.0 0.0 0.00 0.00 0.00 3 1010.5
20260507191404 52 261 0.0 0.0 0.00 0.00 0.00 3 1010.3
20260507184904 52 261 0.0 0.0 0.00 0.00 0.00 3 1010.3
20260507183406 52 263 0.0 0.0 0.00 0.00 0.00 3 1010.3
20260507181904 52 262 0.0 0.0 0.00 0.00 0.00 3 1010.2
20260507181405 52 262 0.0 0.0 0.00 0.00 0.00 3 1010.2
20260507180903 52 262 0.0 0.0 0.00 0.00 0.00 3 1010.2
20260507180404 52 262 0.0 0.0 0.00 0.00 0.00 3 1010.2
20260507174904 55 263 0.0 0.0 0.00 0.00 0.00 3 1010.2
20260507174404 55 262 0.0 0.0 0.00 0.00 0.00 3 1010.2
20260507173904 55 263 0.0 0.0 0.00 0.00 0.00 3 1010.2
20260507164404 57 200 6.1 13.0 0.00 0.00 0.00 20 1010.2
20260507163904 57 157 0.0 2.6 0.00 0.00 0.00 25 1010.0
20260507160904 55 149 0.9 11.3 0.00 0.00 0.00 27 1009.8
20260507160403 55 117 2.6 8.7 0.00 0.00 0.00 29 1009.8
20260507154903 55 146 0.9 7.0 0.00 0.00 0.00 26 1010.0
20260507154404 55 143 0.0 5.2 0.00 0.00 0.00 22 1010.0
20260507153404 55 154 2.6 10.4 0.00 0.00 0.00 19 1010.0
20260507150403 55 169 0.0 11.3 0.00 0.00 0.00 29 1010.1
20260507143904 57 133 0.9 10.4 0.00 0.00 0.00 27 1010.3
20260507140905 59 168 2.6 11.3 0.00 0.00 0.00 24 1010.7
20260507140404 59 153 2.6 10.4 0.00 0.00 0.00 23 1010.6
20260507133903 57 111 2.6 10.4 0.00 0.00 0.00 17 1010.8
20260507133404 57 122 1.7 10.4 0.00 0.00 0.00 17 1010.7
20260507131404 55 152 4.3 10.4 0.00 0.00 0.00 12 1010.9
20260507130404 55 150 2.6 11.3 0.00 0.00 0.00 12 1011.0
20260507124905 55 95 0.9 5.2 0.00 0.00 0.00 4 1011.1
20260507124404 55 135 2.6 10.4 0.00 0.00 0.00 5 1011.2
20260507123904 55 147 4.3 10.4 0.00 0.00 0.00 6 1011.2
20260507121904 54 140 3.5 11.3 0.00 0.00 0.00 4 1011.2
20260507120404 54 140 3.5 10.4 0.00 0.00 0.00 3 1011.3
20260507114404 52 134 5.2 13.0 0.00 0.00 0.00 3 1011.3
20260507111403 50 134 2.6 7.8 0.00 0.00 0.00 3 1011.5
20260507104404 48 140 2.6 10.4 0.00 0.00 0.00 3 1011.7
20260507103404 48 132 2.6 8.7 0.00 0.00 0.00 3 1011.7
20260507101404 48 132 0.9 4.3 0.00 0.00 0.00 3 1011.7
20260507100903 48 127 0.9 8.7 0.00 0.00 0.00 3 1011.7
20260507094904 46 133 0.9 5.2 0.00 0.00 0.00 3 1011.7
20260507094404 46 140 0.0 7.8 0.00 0.00 0.00 3 1011.8
20260507093904 46 129 2.6 10.4 0.00 0.00 0.00 3 1011.8
20260507093405 46 119 1.7 8.7 0.00 0.00 0.00 3 1011.8
20260507091403 46 135 0.9 5.2 0.00 0.00 0.00 3 1011.8
20260507090905 46 103 0.9 4.3 0.00 0.00 0.00 3 1011.8
20260507084904 46 117 0.9 5.2 0.00 0.00 0.00 3 1011.7
20260507081403 45 135 0.9 6.1 0.00 0.00 0.00 3 1011.7